• en France
  • Liste des pays
  • À 7 jours
  • Température de l'eau
  • Carte satellitaire
  • Carte météo
  • Widgets météo
  • user-avatar
    Se connecter

    Météo par heure à Djambala

    Ce jour, 19 Août, Dimanche

    Heure Température Précipitation Vent Pression Humidité
    00:00 +27°C° 0,1 mm 2 m/s 696 mmHg 56%
    01:00 +27°C° 0,1 mm 2 m/s 696 mmHg 59%
    02:00 +26°C° 0,1 mm 2 m/s 695 mmHg 63%
    03:00 +25°C° 0,1 mm 2 m/s 695 mmHg 66%
    04:00 +24°C° 0,1 mm 3 m/s 695 mmHg 70%
    05:00 +24°C° 0 mm 3 m/s 695 mmHg 71%
    06:00 +24°C° 0 mm 3 m/s 696 mmHg 73%
    07:00 +24°C° 0 mm 3 m/s 696 mmHg 74%
    08:00 +25°C° 0 mm 3 m/s 696 mmHg 69%
    09:00 +26°C° 0 mm 3 m/s 697 mmHg 63%
    10:00 +28°C° 0 mm 3 m/s 697 mmHg 58%
    11:00 +28°C° 0 mm 3 m/s 697 mmHg 56%
    12:00 +29°C° 0 mm 3 m/s 696 mmHg 53%
    13:00 +30°C° 0 mm 3 m/s 696 mmHg 51%
    14:00 +30°C° 0,3 mm 3 m/s 695 mmHg 50%
    15:00 +30°C° 0,3 mm 3 m/s 695 mmHg 50%
    16:00 +30°C° 0,3 mm 2 m/s 695 mmHg 49%
    17:00 +29°C° 0,9 mm 2 m/s 695 mmHg 54%
    18:00 +28°C° 0,9 mm 2 m/s 695 mmHg 58%
    19:00 +27°C° 0,9 mm 2 m/s 695 mmHg 63%
    20:00 +26°C° 1 mm 2 m/s 696 mmHg 65%
    21:00 +26°C° 1 mm 2 m/s 696 mmHg 67%
    22:00 +25°C° 1 mm 3 m/s 697 mmHg 68%
    23:00 +25°C° 0,2 mm 3 m/s 697 mmHg 70%

    Demain, 20 Août, Lundi

    Heure Température Précipitation Vent Pression Humidité
    00:00 +24°C° 0,2 mm 3 m/s 697 mmHg 71%
    01:00 +24°C° 0,2 mm 3 m/s 696 mmHg 73%
    02:00 +22°C° 0 mm 3 m/s 696 mmHg 75%
    03:00 +22°C° 0 mm 3 m/s 696 mmHg 77%
    04:00 +22°C° 0 mm 3 m/s 696 mmHg 79%
    05:00 +21°C° 0 mm 3 m/s 696 mmHg 80%
    06:00 +21°C° 0 mm 3 m/s 696 mmHg 80%
    07:00 +21°C° 0 mm 4 m/s 697 mmHg 80%
    08:00 +23°C° 0 mm 4 m/s 697 mmHg 73%
    09:00 +25°C° 0 mm 4 m/s 697 mmHg 67%
    10:00 +27°C° 0 mm 4 m/s 698 mmHg 60%
    11:00 +28°C° 0 mm 4 m/s 697 mmHg 54%
    12:00 +30°C° 0 mm 4 m/s 697 mmHg 49%
    13:00 +32°C° 0 mm 4 m/s 696 mmHg 43%
    14:00 +33°C° 0 mm 4 m/s 696 mmHg 43%
    15:00 +33°C° 0 mm 4 m/s 695 mmHg 42%
    16:00 +33°C° 0 mm 4 m/s 694 mmHg 41%
    17:00 +31°C° 0 mm 3 m/s 695 mmHg 43%
    18:00 +30°C° 0 mm 3 m/s 695 mmHg 45%
    19:00 +29°C° 0 mm 2 m/s 695 mmHg 46%
    20:00 +29°C° 0 mm 3 m/s 696 mmHg 48%
    21:00 +29°C° 0 mm 3 m/s 697 mmHg 49%
    22:00 +28°C° 0 mm 3 m/s 697 mmHg 50%
    23:00 +27°C° 0 mm 3 m/s 697 mmHg 53%

    Après-demain, 21 Août, Mardi

    Heure Température Précipitation Vent Pression Humidité
    00:00 +26°C° 0 mm 4 m/s 697 mmHg 57%
    01:00 +25°C° 0 mm 4 m/s 696 mmHg 60%
    02:00 +23°C° 0 mm 4 m/s 696 mmHg 63%
    03:00 +23°C° 0 mm 4 m/s 696 mmHg 65%
    04:00 +22°C° 0 mm 4 m/s 695 mmHg 68%
    05:00 +22°C° 0 mm 4 m/s 696 mmHg 68%
    06:00 +22°C° 0 mm 3 m/s 696 mmHg 69%
    07:00 +22°C° 0 mm 3 m/s 697 mmHg 69%
    08:00 +25°C° 0 mm 4 m/s 697 mmHg 62%
    09:00 +26°C° 0 mm 4 m/s 698 mmHg 55%
    10:00 +28°C° 0 mm 4 m/s 698 mmHg 49%
    11:00 +30°C° 0 mm 4 m/s 698 mmHg 44%
    12:00 +32°C° 0 mm 4 m/s 697 mmHg 40%
    13:00 +34°C° 0 mm 4 m/s 696 mmHg 35%
    14:00 +34°C° 0 mm 4 m/s 696 mmHg 34%
    15:00 +34°C° 0 mm 3 m/s 695 mmHg 33%
    16:00 +34°C° 0 mm 3 m/s 694 mmHg 32%
    17:00 +33°C° 0 mm 3 m/s 695 mmHg 35%
    18:00 +31°C° 0 mm 2 m/s 695 mmHg 37%
    19:00 +30°C° 0 mm 2 m/s 695 mmHg 40%
    20:00 +30°C° 0 mm 2 m/s 696 mmHg 41%
    21:00 +30°C° 0 mm 2 m/s 696 mmHg 42%
    22:00 +29°C° 0 mm 2 m/s 697 mmHg 43%
    23:00 +28°C° 0 mm 3 m/s 696 mmHg 47%

    22 Août, Mercredi

    Heure Température Précipitation Vent Pression Humidité
    00:00 +27°C° 0 mm 3 m/s 696 mmHg 50%
    01:00 +26°C° 0 mm 3 m/s 696 mmHg 54%
    02:00 +25°C° 0 mm 3 m/s 695 mmHg 57%
    03:00 +24°C° 0 mm 3 m/s 695 mmHg 61%
    04:00 +24°C° 0 mm 3 m/s 695 mmHg 65%
    05:00 +22°C° 0 mm 3 m/s 695 mmHg 66%
    06:00 +22°C° 0 mm 3 m/s 696 mmHg 67%
    07:00 +22°C° 0 mm 3 m/s 696 mmHg 69%
    08:00 +24°C° 0 mm 3 m/s 697 mmHg 64%
    09:00 +26°C° 0 mm 3 m/s 697 mmHg 58%
    10:00 +27°C° 0 mm 3 m/s 698 mmHg 53%
    11:00 +29°C° 0 mm 3 m/s 697 mmHg 48%
    12:00 +30°C° 0 mm 3 m/s 697 mmHg 43%
    13:00 +33°C° 0 mm 3 m/s 696 mmHg 38%
    14:00 +33°C° 0 mm 3 m/s 696 mmHg 38%
    15:00 +33°C° 0 mm 3 m/s 695 mmHg 37%
    16:00 +33°C° 0 mm 3 m/s 694 mmHg 37%
    17:00 +31°C° 0 mm 2 m/s 695 mmHg 39%
    18:00 +30°C° 0 mm 2 m/s 695 mmHg 42%
    19:00 +29°C° 0 mm 1 m/s 696 mmHg 44%
    20:00 +28°C° 0 mm 1 m/s 696 mmHg 46%
    21:00 +28°C° 0 mm 2 m/s 696 mmHg 47%
    22:00 +27°C° 0 mm 2 m/s 697 mmHg 49%
    23:00 +26°C° 0 mm 2 m/s 696 mmHg 50%

    23 Août, Jeudi

    Heure Température Précipitation Vent Pression Humidité
    00:00 +26°C° 0 mm 2 m/s 696 mmHg 52%
    01:00 +25°C° 0 mm 3 m/s 696 mmHg 54%
    02:00 +24°C° 0 mm 3 m/s 695 mmHg 58%
    03:00 +24°C° 0 mm 3 m/s 695 mmHg 61%
    04:00 +22°C° 0 mm 3 m/s 695 mmHg 64%
    05:00 +22°C° 0 mm 3 m/s 695 mmHg 66%
    06:00 +22°C° 0 mm 3 m/s 696 mmHg 67%
    07:00 +21°C° 0 mm 3 m/s 696 mmHg 69%
    08:00 +24°C° 0 mm 3 m/s 697 mmHg 62%
    09:00 +26°C° 0 mm 3 m/s 697 mmHg 55%
    10:00 +28°C° 0 mm 3 m/s 698 mmHg 48%
    11:00 +30°C° 0 mm 3 m/s 697 mmHg 44%
    12:00 +31°C° 0 mm 3 m/s 696 mmHg 40%
    13:00 +34°C° 0 mm 3 m/s 696 mmHg 36%
    14:00 +34°C° 0 mm 3 m/s 695 mmHg 35%
    15:00 +34°C° 0 mm 3 m/s 694 mmHg 35%
    16:00 +33°C° 0 mm 3 m/s 694 mmHg 35%
    17:00 +33°C° 0 mm 3 m/s 694 mmHg 37%
    18:00 +31°C° 0 mm 3 m/s 695 mmHg 38%
    19:00 +30°C° 0 mm 2 m/s 695 mmHg 40%
    20:00 +30°C° 0 mm 2 m/s 695 mmHg 41%
    21:00 +29°C° 0 mm 2 m/s 696 mmHg 42%
    22:00 +28°C° 0 mm 2 m/s 696 mmHg 42%
    23:00 +27°C° 0 mm 2 m/s 696 mmHg 43%

    24 Août, Vendredi

    Heure Température Précipitation Vent Pression Humidité
    00:00 +27°C° 0 mm 2 m/s 695 mmHg 44%
    01:00 +26°C° 0 mm 2 m/s 695 mmHg 45%
    02:00 +25°C° 0 mm 2 m/s 695 mmHg 47%
    03:00 +24°C° 0 mm 2 m/s 695 mmHg 49%
    04:00 +24°C° 0 mm 2 m/s 695 mmHg 51%
    05:00 +23°C° 0 mm 2 m/s 695 mmHg 52%
    06:00 +23°C° 0 mm 2 m/s 695 mmHg 54%
    07:00 +23°C° 0 mm 2 m/s 696 mmHg 55%
    08:00 +25°C° 0 mm 2 m/s 696 mmHg 50%
    09:00 +27°C° 0 mm 2 m/s 697 mmHg 45%
    10:00 +29°C° 0 mm 2 m/s 697 mmHg 40%
    11:00 +31°C° 0 mm 3 m/s 696 mmHg 37%
    12:00 +33°C° 0 mm 3 m/s 696 mmHg 34%
    13:00 +35°C° 0 mm 3 m/s 695 mmHg 31%
    14:00 +34°C° 0 mm 3 m/s 694 mmHg 32%
    15:00 +34°C° 0 mm 3 m/s 694 mmHg 32%
    16:00 +34°C° 0 mm 3 m/s 693 mmHg 32%
    17:00 +32°C° 0 mm 2 m/s 694 mmHg 35%
    18:00 +31°C° 0 mm 2 m/s 694 mmHg 37%
    19:00 +30°C° 0 mm 2 m/s 694 mmHg 39%
    20:00 +30°C° 0 mm 2 m/s 695 mmHg 41%
    21:00 +29°C° 0 mm 2 m/s 695 mmHg 43%
    22:00 +29°C° 0 mm 1 m/s 695 mmHg 45%
    23:00 +28°C° 0 mm 2 m/s 695 mmHg 45%
    Voir plus